Regional Weather Roundup
Issued by NWS Green Bay, WI

Home | Current Version | Previous Version | Graphics & Text | Print | Product List | Glossary Off
Versions: 1 2 3 4 5 6 7 8 9 10 11 12 13 14 15 16 17 18 19 20 21 22 23 24 25 26 27 28 29 30 31 32 33 34 35 36 37 38 39 40 41 42 43 44 45 46 47 48 49 50

000
ASUS43 KGRB 240511
RWRGRB

NORTH-CENTRAL AND NORTHEAST WISCONSIN REGIONAL WEATHER ROUNDUP
NATIONAL WEATHER SERVICE GREEN BAY WI
1200 AM CDT FRI MAR 24 2017

WIZ005-009-010>012-018-019-240600-
NORTH CENTRAL WISCONSIN

CITY           SKY/WX    TMP DP  RH WIND       PRES   REMARKS
IRONWOOD       MIX PCPN  34  31  88 CALM      29.89S
MANITOWISH WTR CLOUDY    32  32 100 SE5       29.87F
ARBOR VITAE    CLOUDY    34  32  92 NE3       29.87F
EAGLE RIVER    CLOUDY    32  31  96 E5        29.89F
LAND O LAKES   CLOUDY    32  32 100 SE3       29.91F FOG
RHINELANDER    CLOUDY    34  30  85 E5        29.88F
PHILLIPS       CLOUDY    36  29  76 S5        29.88F
ANTIGO         CLOUDY    32  29  90 S5        29.90F
TOMAHAWK       CLOUDY    32  30  92 CALM      29.91R
MERRILL        CLOUDY    36  29  75 S3        29.90R
$$

WIZ013-073-240600-
NORTHEAST WISCONSIN

CITY           SKY/WX    TMP DP  RH WIND       PRES   REMARKS
IRON MOUNTAIN  CLOUDY    32  27  81 CALM      29.93F
MARINETTE        N/A    N/A N/A N/A MISG        N/A
OCONTO         MOCLDY    35  31  85 CALM      29.94F
$$

WIZ017-030-035>037-045-240600-
CENTRAL WISCONSIN

CITY           SKY/WX    TMP DP  RH WIND       PRES   REMARKS
MEDFORD        DRIZZLE   35  32  90 S3        29.87S
WAUSAU         CLOUDY    37  31  78 SE5       29.88S
MOSINEE        MIX PCPN  36  32  87 SE3       29.88F
MARSHFIELD     CLOUDY    37  32  82 S6        29.87R
WISC RAPIDS    CLOUDY    38  34  85 S5        29.90F
STEVENS POINT  CLOUDY    36  32  85 S3        29.89F
WAUPACA        CLOUDY    37  33  87 SE7       29.90F
SHAWANO        MOCLDY    36  29  77 CALM      29.93F
CLINTONVILLE   CLOUDY    34  28  80 CALM      29.93S
WAUTOMA        CLOUDY    41  34  76 S6        29.91
$$

WIZ038-039-048-051-240600-
FOX VALLEY

CITY           SKY/WX    TMP DP  RH WIND       PRES   REMARKS
NWS GREEN BAY  CLOUDY    37  33  85 S6        29.94F
APPLETON       CLOUDY    36  30  80 S6        29.91F
OSHKOSH        CLOUDY    38  33  82 CALM      29.94R
FOND DU LAC    CLOUDY    41  33  73 NW10      29.96R
$$

WIZ022-050-052-240600-
EAST CENTRAL WISCONSIN

CITY           SKY/WX    TMP DP  RH WIND       PRES   REMARKS
EPHRAIM        CLOUDY    36  32  85 S7G16     29.95F
WASHINGTON ISL CLOUDY    35  31  86 S8        29.98F
STURGEON BAY   CLOUDY    37  33  85 S10       29.95R
MANITOWOC      MOCLDY    38  34  85 S10       29.97R
SHEBOYGAN      CLOUDY    38  34  85 S8        29.89F
$$

LMZ563-521-522-541>543-240600-
LAKESHORE

STATION/POSITION TIME  TEMP    WIND        PRES    VSBY  WAVE
                       AIR SEA DIR/SP/G                  HT/PER
                 (UTC) (F)     (DEG/KT/KT) (MB)    (MI)  (FT/S)
SHEBOYGAN LKSHOR 0500   38     160/  9/ 10 1012.9F
KEWAUNEE LKSHORE 0442   37     190/ 11/ 13 1014.0F
NORTHPORT PIER   0440   37     150/  6/ 11 1015.2F
SISTER BAY LKSHO 0420   36     200/ 15/ 20   N/A
CHAMBERS ISLAND  0440   36     180/  4/  8 1015.2R
MENOMINEE LKSHOR 0442   36     160/  5/  8 1014.1R
$$




USA.gov is the U.S. government's official web portal to all federal, state and local government web resources and services.